Flag for Canada Weather past 2 weeks in Prince Rupert, British Columbia, Canada

Now
43 °F

Light rain. Overcast.


Feels Like: 36 °F
Forecast: 35 / 43 °F
Wind: 12 mph from Southeast

Location: Prince Rupert

Current Time: Dec 18, 2014 at 8:12:29 PM

Latest Report: Dec 18, 2014 at 7:00 PM


Visibility: 9 mi

Pressure: 29.29 "Hg

Humidity: 81%

Dew point: 37 °F

Location of Prince RupertLocation

Historic Weather in Prince Rupert — Graph

°F

Prince Rupert temperature yesterday

Maximum temperature yesterday: 43 °F (at 10:00 PM)
Minimum temperature yesterday: 32 °F (at 9:00 AM)
Average temperature yesterday: 37 °F

Past Weeks' High & Low Weather Summary

 TemperatureHumidityPressure
High54 °F (Dec 7, 11:00 AM)100% (Dec 3, 7:02 PM)30.07 "Hg (Dec 3, 7:02 PM)
Low30 °F (Dec 4, 7:00 AM)29% (Dec 15, 10:00 AM)28.69 "Hg (Dec 10, 2:00 PM)
Average44 °F80%29.57 "Hg
* Reported Dec 3 7:02 PM — Dec 18 7:00 PM, Prince Rupert, Weather by CustomWeather, © 2014

Note: Actual official high and low records may vary slightly from our data, if they occured in-between our weather recording intervals... More about our weather records

Advertising

Prince Rupert weather history for previous 24 hours

 ConditionsComfort  
Time TempWeatherWind HumidityBarometerVisibility
7:00 PM
Dec 18
43 °FLight rain. Overcast.12 mph81%29.29 "Hg9 mi
6:00 PM43 °FLight rain. Overcast.16 mph81%29.30 "Hg9 mi
5:00 PM43 °FLight rain. Overcast.14 mph81%29.31 "Hg9 mi
4:00 PM43 °FLight rain. Overcast.15 mph81%29.32 "Hg9 mi
3:00 PM45 °FLight rain. More clouds than sun.10 mph71%29.34 "Hg9 mi
2:00 PM43 °FLight rain. More clouds than sun.17 mph76%29.35 "Hg9 mi
1:00 PM45 °FMostly cloudy.13 mph66%29.37 "Hg9 mi
12:00 PM41 °FLight rain. Overcast.23 mph81%29.41 "Hg3 mi
11:46 AM43 °FLight rain. Overcast.23 mph71%29.42 "Hg5 mi
11:00 AM46 °FMostly cloudy.22 mph46%29.43 "Hg9 mi
10:56 AM46 °FMostly cloudy.22 mph46%29.43 "Hg9 mi
10:00 AM46 °FMostly cloudy.23 mph43%29.46 "Hg9 mi
9:49 AM46 °FMore clouds than sun.24 mph43%29.46 "Hg9 mi
9:00 AM45 °FMore clouds than sun.13 mph49%29.49 "Hg9 mi
8:00 AM46 °FMostly cloudy.17 mph43%29.49 "Hg9 mi
7:00 AM46 °FOvercast.16 mph50%29.52 "Hg9 mi
6:00 AM45 °FOvercast.14 mph57%29.54 "Hg9 mi
5:00 AM45 °FMostly cloudy.14 mph61%29.57 "Hg9 mi
4:00 AM45 °FMostly cloudy.14 mph61%29.59 "Hg9 mi
3:00 AM45 °FMostly cloudy.14 mph61%29.62 "Hg9 mi
2:00 AM45 °FMostly cloudy.10 mph61%29.63 "Hg9 mi
1:00 AM45 °FOvercast.13 mph61%29.65 "Hg9 mi
12:46 AM43 °FPassing clouds.14 mph66%29.65 "Hg9 mi
12:00 AM41 °FMostly cloudy.No wind70%29.67 "Hg9 mi
11:00 PM
Dec 17
43 °FMostly cloudy.10 mph66%29.69 "Hg9 mi
10:00 PM43 °FMostly cloudy.8 mph66%29.70 "Hg9 mi
9:00 PM41 °FMostly cloudy.10 mph70%29.72 "Hg9 mi
8:00 PM39 °FOvercast.8 mph81%29.74 "Hg9 mi
Weather by CustomWeather, © 2014

See weather overviewHow to use our weather pages